Location: East Horndon
(51.5667°N, 0.3500°E)
Time: 23:53:54
(UTC+00:00)

Cosmos 1420 Rocket - Pass Details

Date: 08 November 2025
Orbit: 750 x 777 km, 74.0° (Epoch: 04 December)

Event Time Altitude Azimuth Distance (km) Brightness Sun altitude
Rises 05:38:09 0° 194° (SSW) 3,225 7.2 -13.6°
Reaches altitude 10° 05:40:31 10° 192° (SSW) 2,307 6.5 -13.3°
Maximum altitude 05:45:43 68° 110° (ESE) 837 4.4 -12.5°
Drops below altitude 10° 05:50:59 10° 29° (NNE) 2,336 6.7 -11.7°
Sets 05:53:23 0° 27° (NNE) 3,270 7.5 -11.3°
